TimePST,TemperatureF,Dew PointF,Humidity,Sea Level PressureIn,VisibilityMPH,Wind Direction,Wind SpeedMPH,Gust SpeedMPH,PrecipitationIn,Events,Conditions,WindDirDegrees,DateUTC
12:54 AM,45.0,34.0,65,30.36,10.0,East,10.4,-,N/A,,Clear,90,2014-01-13 08:54:00
1:54 AM,45.0,33.1,63,30.37,10.0,East,8.1,-,N/A,,Clear,80,2014-01-13 09:54:00
2:54 AM,45.0,33.1,63,30.38,10.0,East,10.4,-,N/A,,Clear,80,2014-01-13 10:54:00
3:54 AM,44.1,33.1,65,30.39,10.0,East,8.1,-,N/A,,Clear,80,2014-01-13 11:54:00
4:54 AM,44.1,32.0,63,30.38,10.0,East,6.9,-,N/A,,Clear,80,2014-01-13 12:54:00
5:54 AM,43.0,30.9,62,30.39,10.0,ENE,6.9,-,N/A,,Clear,70,2014-01-13 13:54:00
6:54 AM,44.1,30.9,60,30.40,10.0,East,8.1,-,N/A,,Clear,80,2014-01-13 14:54:00
7:54 AM,45.0,30.9,58,30.42,10.0,East,4.6,-,N/A,,Clear,80,2014-01-13 15:54:00
8:54 AM,53.1,32.0,45,30.44,10.0,ENE,5.8,-,N/A,,Clear,60,2014-01-13 16:54:00
9:54 AM,61.0,33.1,35,30.44,10.0,ENE,5.8,-,N/A,,Clear,60,2014-01-13 17:54:00
10:54 AM,66.0,34.0,30,30.43,10.0,NE,5.8,-,N/A,,Clear,40,2014-01-13 18:54:00
11:54 AM,69.1,33.1,26,30.40,10.0,NNE,8.1,-,N/A,,Clear,30,2014-01-13 19:54:00
12:54 PM,72.0,33.1,24,30.38,10.0,NNE,3.5,-,N/A,,Clear,20,2014-01-13 20:54:00
1:54 PM,75.0,28.9,18,30.37,10.0,Variable,4.6,-,N/A,,Clear,0,2014-01-13 21:54:00
2:54 PM,75.9,28.9,18,30.36,10.0,NNW,3.5,-,N/A,,Clear,330,2014-01-13 22:54:00
3:54 PM,73.9,28.9,19,30.37,10.0,NNE,4.6,-,N/A,,Clear,30,2014-01-13 23:54:00
4:54 PM,70.0,34.0,27,30.38,10.0,NNE,4.6,-,N/A,,Clear,20,2014-01-14 00:54:00
5:54 PM,63.0,33.1,33,30.38,10.0,ENE,4.6,-,N/A,,Clear,60,2014-01-14 01:54:00
6:54 PM,55.0,33.1,43,30.40,10.0,ESE,3.5,-,N/A,,Clear,110,2014-01-14 02:54:00
7:54 PM,51.1,32.0,48,30.40,10.0,East,3.5,-,N/A,,Clear,80,2014-01-14 03:54:00
8:54 PM,48.0,32.0,54,30.41,10.0,East,3.5,-,N/A,,Clear,90,2014-01-14 04:54:00
9:54 PM,48.0,30.0,50,30.40,10.0,SE,3.5,-,N/A,,Clear,130,2014-01-14 05:54:00
10:54 PM,46.0,28.9,51,30.40,10.0,Calm,Calm,-,N/A,,Clear,0,2014-01-14 06:54:00
11:54 PM,45.0,28.0,52,30.39,10.0,East,4.6,-,N/A,,Clear,100,2014-01-14 07:54:00